LA6JKA Weather Reports


time (UTC)temp
C
wind
direction
speed
KPH
gust
KPH
rain 1hr
cm
rain 24hr
cm
rain mn
cm
humidity
%
barometer
mb
20260502214535 8 163 0.0 1.6 0.00 0.23 0.23 96 1008.9
20260502213041 8 163 0.0 0.0 0.00 0.23 0.23 96 1008.8
20260502211535 8 163 0.0 0.0 0.00 0.23 0.23 95 1008.9
20260502210032 8 163 0.0 0.0 0.00 0.23 0.23 95 1008.8
20260502204531 8 163 0.0 3.2 0.00 0.23 0.23 94 1008.8
20260502203031 9 163 1.6 4.8 0.03 0.23 0.23 94 1008.8
20260502201532 9 163 1.6 8.0 0.03 0.23 0.23 93 1009.0
20260502200029 10 140 4.8 8.0 0.03 0.23 0.23 93 1009.0
20260502194528 10 167 4.8 9.7 0.03 0.23 0.23 93 1009.0
20260502193029 10 200 4.8 9.7 0.00 0.23 0.23 93 1009.2
20260502191527 10 198 4.8 11.3 0.00 0.23 0.23 93 1009.3
20260502190027 10 188 1.6 3.2 0.00 0.23 0.23 93 1009.2
20260502184526 10 189 1.6 3.2 0.03 0.23 0.23 93 1009.0
20260502183026 10 188 0.0 3.2 0.03 0.23 0.23 92 1008.8
20260502181524 10 202 1.6 8.0 0.03 0.23 0.23 92 1008.9
20260502163017 11 171 3.2 8.0 0.20 0.20 0.20 86 1009.6
20260502161512 12 229 3.2 6.4 0.15 0.15 0.15 80 1009.4
20260502151514 15 193 6.4 16.1 0.00 0.00 0.00 57 1009.5
20260502130104 17 189 12.9 22.5 0.00 0.00 0.00 49 1010.2
20260502123057 17 242 14.5 24.1 0.00 0.00 0.00 45 1010.4
20260502121555 17 213 11.3 22.5 0.00 0.00 0.00 44 1010.5
20260502114556 18 191 12.9 27.4 0.00 0.00 0.00 46 1010.7
20260502113052 18 183 12.9 24.1 0.00 0.00 0.00 47 1011.0
20260502111548 17 236 14.5 25.7 0.00 0.00 0.00 46 1011.2
20260502110046 17 224 12.9 29.0 0.00 0.00 0.00 48 1011.5
20260502104542 17 235 14.5 29.0 0.00 0.00 0.00 49 1011.5
20260502103038 16 227 12.9 25.7 0.00 0.00 0.00 51 1011.6
20260502101543 16 162 19.3 32.2 0.00 0.00 0.00 49 1011.6
20260502091530 15 208 14.5 30.6 0.00 0.00 0.00 53 1011.8
20260502071503 12 241 12.9 24.1 0.00 0.00 0.00 59 1013.2
20260502064601 11 237 11.3 17.7 0.00 0.00 0.00 67 1013.5
20260502063052 10 185 8.0 17.7 0.00 0.00 0.00 69 1013.6
20260502061550 10 226 6.4 19.3 0.00 0.00 0.00 72 1013.7
20260502060049 9 219 9.7 19.3 0.00 0.00 0.00 73 1013.8
20260502054555 8 180 8.0 19.3 0.00 0.00 0.00 74 1013.9
20260502053047 8 192 8.0 19.3 0.00 0.00 0.00 74 1013.9
20260502051544 8 204 11.3 19.3 0.00 0.00 0.00 74 1014.0
20260502050044 7 215 9.7 16.1 0.00 0.00 0.00 76 1014.0
20260502044542 7 209 4.8 12.9 0.00 0.00 0.00 77 1014.1
20260502043046 7 222 4.8 9.7 0.00 0.00 0.00 77 1014.1
20260502041540 7 202 4.8 9.7 0.00 0.00 0.00 77 1014.2
20260502040051 7 223 4.8 14.5 0.00 0.00 0.00 78 1014.4
20260502034536 7 207 6.4 12.9 0.00 0.00 0.00 79 1014.6
20260502033033 6 183 6.4 16.1 0.00 0.00 0.00 80 1014.8
20260502031534 6 235 3.2 8.0 0.00 0.00 0.00 80 1014.9
20260502030029 7 237 4.8 9.7 0.00 0.00 0.00 79 1015.0
20260502024526 7 209 3.2 12.9 0.00 0.00 0.00 79 1015.2
20260502023023 7 190 4.8 14.5 0.00 0.00 0.00 79 1015.4
20260502021520 7 203 8.0 16.1 0.00 0.00 0.00 78 1015.6
20260502020019 7 245 9.7 16.1 0.00 0.00 0.00 77 1015.8
20260502014535 7 226 6.4 17.7 0.00 0.00 0.00 77 1015.9
20260502013014 7 194 8.0 22.5 0.00 0.00 0.00 78 1016.1
20260502011511 7 210 8.0 16.1 0.00 0.00 0.00 78 1016.2
20260502010009 7 203 8.0 12.9 0.00 0.00 0.00 78 1016.3
20260502004508 7 171 6.4 12.9 0.00 0.00 0.00 78 1016.4
20260502003004 8 220 4.8 11.3 0.00 0.00 0.00 77 1016.5
20260502001502 8 242 8.0 16.1 0.00 0.00 0.00 77 1016.6
20260502000059 8 200 8.0 16.1 0.00 0.00 0.00 77 1016.6
20260501234557 8 205 4.8 14.5 0.00 0.00 0.00 77 1016.8
20260501233057 8 240 8.0 12.9 0.00 0.00 0.00 76 1016.9
20260501231552 8 192 6.4 12.9 0.00 0.00 0.00 75 1017.1
20260501230051 8 166 6.4 9.7 0.00 0.00 0.00 74 1017.1
20260501224557 9 198 9.7 16.1 0.00 0.00 0.00 73 1017.0
20260501223046 9 188 8.0 16.1 0.00 0.00 0.00 72 1017.1
20260501221546 9 193 8.0 16.1 0.00 0.00 0.00 70 1017.2
20260501220047 9 162 8.0 16.1 0.00 0.00 0.00 70 1017.3